Regional Weather Roundup
Issued by NWS

Home | Current Version | Previous Version | Graphics & Text | Print | Product List | Glossary On
Versions: 1 2 3 4 5 6 7 8 9 10 11 12 13 14 15 16 17 18 19 20 21 22 23 24 25 26 27 28 29 30 31 32 33 34 35 36 37 38 39 40 41 42 43 44 45 46 47 48 49 50
000
ASUS43 KMKX 111000
RWRWI

WISCONSIN REGIONAL WEATHER ROUNDUP
NATIONAL WEATHER SERVICE MILWAUKEE/SULLIVAN WI
400 AM CST THU FEB 11 2016

NOTE: "FAIR" INDICATES FEW OR NO CLOUDS BELOW 12,000 FEET WITH NO
SIGNIFICANT WEATHER AND/OR OBSTRUCTIONS TO VISIBILITY.

WIZ001-002-006>008-014>016-023>028-111100-
NORTHWEST WISCONSIN

CITY           SKY/WX    TMP DP  RH WIND       PRES   REMARKS
SUPERIOR ARPT  CLOUDY    -8 -13  78 NW7       30.30F WCI -23
ASHLAND        CLOUDY     0  -3  87 W7        30.25S WCI -13
HAYWARD        CLOUDY   -18 -23  77 CALM      30.24R
SIREN          PTCLDY   -11 -16  79 CALM      30.28S
CUMBERLAND     PTCLDY   -11 -17  77 CALM      30.24R
RICE LAKE      PTCLDY    -8 -11  89 CALM      30.26S
CHETEK         PTCLDY   -10 -13  83 CALM      30.25S
LADYSMITH      CLOUDY   -15 -21  77 CALM      30.24R
EAU CLAIRE     NOT AVBL
MENOMONIE      PTCLDY    -2 -10  70 W3        30.27S
NEW RICHMOND   CLOUDY    -7 -11  82 CALM      30.27S
OSCEOLA        PTCLDY    -5  -9  82 CALM      30.32R
$$

WIZ003>005-009-010-017-018-111100-
NORTH CENTRAL WISCONSIN

CITY           SKY/WX    TMP DP  RH WIND       PRES   REMARKS
MANITOWISH WTR CLOUDY     4   0  83 W3        30.12S
ARBOR VITAE    CLOUDY     5   0  79 W5        30.12S WCI  -4
WOODRUFF       CLOUDY     5   0  79 W5        30.12S WCI  -4
RHINELANDER    CLOUDY     2  -4  76 W5        30.13R WCI  -8
EAGLE RIVER    CLOUDY     3  -3  79 NW5       30.10S WCI  -7
LAND O LAKES   LGT SNOW   7   2  80 NW9       30.10S WCI  -6
PHILLIPS       CLOUDY   -15 -19  83 CALM      30.17R
TOMAHAWK       CLOUDY     0  -4  83 NW3       30.16S
MEDFORD        LGT SNOW  -9 -12  84 CALM      30.17S
MERRILL        CLEAR     -3  -6  85 NW5       30.18R WCI -13
$$

WIZ029-030-035-036-043>047-111100-
CENTRAL WISCONSIN

CITY           SKY/WX    TMP DP  RH WIND       PRES   REMARKS
WAUSAU         CLEAR      0  -6  76 N3        30.18R
MOSINEE        CLEAR      0  -4  85 CALM      30.19R
MARSHFIELD     CLOUDY    -5 -12  72 W3        30.19R
STEVENS POINT  CLEAR     -3  -8  79 CALM      30.21R
WAUPACA        CLEAR      2  -5  72 W9        30.22S WCI -13
WAUTOMA        NOT AVBL
WISC RAPIDS    PTCLDY    -3  -8  79 W5        30.24R WCI -13
CAMP DOUGLAS   NOT AVBL
$$

WIZ011>013-019>022-031-037>040-048>050-111100-
NORTHEAST WISCONSIN

CITY           SKY/WX    TMP DP  RH WIND       PRES   REMARKS
ANTIGO         CLEAR     -3  -6  84 NW8       30.13S WCI -18
SHAWANO        CLEAR      3  -4  72 W6        30.20S WCI  -8
OCONTO         MOCLDY     1  -5  73 NW5       30.19S WCI  -8
STURGEON BAY   CLEAR      1  -6  71 W8        30.18S WCI -12
GREEN BAY      CLEAR     -1  -7  75 W9        30.20R WCI -16
MANITOWOC      NOT AVBL
APPLETON       CLEAR      0  -8  71 W12       30.17S WCI -18
CLINTONVILLE   CLEAR      1  -6  71 NW8       30.20R WCI -12
OSHKOSH        CLEAR      0  -7  72 W7        30.21R WCI -13
$$

WIZ032>034-041-042-053>061-111100-
SOUTHWEST WISCONSIN

CITY           SKY/WX    TMP DP  RH WIND       PRES   REMARKS
LA CROSSE      CLOUDY     0  -5  79 CALM      30.30R
SPARTA         CLOUDY   -12 -16  82 CALM      30.27S
VIROQUA        CLOUDY     1  -4  80 CALM      30.21S
BOSCOBEL       PTCLDY    -2  -7  79 CALM      30.28S
PRAIRIE DU CHI PTCLDY     6  -3  65 CALM      30.28S
PLATTEVILLE    CLEAR      4  -3  74 N6        30.23R WCI  -7
$$

WIZ056-057-062-063-064-067-068-111100-
SOUTH CENTRAL WISCONSIN

CITY           SKY/WX    TMP DP  RH WIND       PRES   REMARKS
REEDSBURG      CLEAR      1  -4  79 CALM      30.24S
BARABOO/DELLS  CLEAR     -3  -8  78 NW3       30.23S
LONE ROCK      NOT AVBL
MINERAL POINT  CLEAR      5  -4  66 N7        30.20S WCI  -7
MADISON        CLEAR      3  -5  69 N5        30.23S WCI  -6
MIDDLETON      CLEAR      3  -4  73 NW6       30.23S WCI  -8
WATERTOWN      CLEAR      3  -3  75 NW3       30.21S
MONROE         CLEAR      7   0  72 N7        30.20S WCI  -5
JANESVILLE     CLEAR      9   0  66 NW5       30.22S WCI   0
$$

WIZ051-052-058>065-066-070>072-111100-
SOUTHEAST WISCONSIN

CITY           SKY/WX    TMP DP  RH WIND       PRES   REMARKS
MILWAUKEE      CLEAR      6  -4  63 NW9       30.21R WCI  -8
WAUKESHA       CLEAR      1  -6  71 W7        30.21R WCI -11
MILWAUKEE/TIMM CLEAR      5  -6  61 NW6       30.21S WCI  -6
RACINE         CLEAR      6  -5  60 NW8       30.22R WCI  -7
BURLINGTON     CLEAR      2  -5  72 NW3       30.21R
KENOSHA        CLEAR      6  -4  63 NW7       30.20S WCI  -6
FOND DU LAC    CLEAR      2  -6  69 W9        30.21R WCI -13
SHEBOYGAN      CLEAR      2  -6  69 W10       30.19R WCI -14
WEST BEND      CLEAR      3  -6  66 CALM      30.19S
JUNEAU         CLEAR      1  -5  76 W3        30.22S
$$

LSZ147-162-111100-
LAKE SUPERIOR

STATION/POSITION TIME  TEMP    WIND        PRES    WAVE
                       AIR SEA DIR/SP/G            HT/PER
                 (UTC) (F)     (DEG/KT/KT) (MB)    (FT/S)
DEVILS ISLAND    0900    8     340/ 13/ 16 1026.2R
PORT WING        0900    7      10/  7/ 10 1025.1S
SAXON HARBOR     0900    6                 1023.7R
$$

LMZ867-665-643>646-111100-
LAKE MICHIGAN

STATION/POSITION TIME  TEMP    WIND        PRES    WAVE
                       AIR SEA DIR/SP/G            HT/PER
                 (UTC) (F)     (DEG/KT/KT) (MB)    (FT/S)
CHAMBERS ISLAND  0900    9     300/ 11/ 16 1021.0R
ALGOMA LAKESHORE 0811          310/  2/  5   N/A
KEWAUNEE LAKESHO 0900    4     310/  8/ 10 1020.8R
SHEBOYGAN LAKESH 0900    6     290/ 11/ 14 1023.9R
PORT WASHINGTON  0940    6     300/  7/ 12 1023.7S
MILWAUKEE LAKESH 0910    8     320/  7/  9   N/A
KENOSHA   LAKESH 0900    8     320/ 10/ 14 1022.7R
$$

TC  - TEMPERATURE IN CELSIUS
VSB - VISIBILITY IN STATUTE MILES
WCI - WIND CHILL INDEX
HX  - HEAT INDEX




USA.gov is the U.S. government's official web portal to all federal, state and local government web resources and services.